Tracking 17925 objects as of 19-February-2017
HD Live streaming from Space Station
objects crossing your sky now

AMC-5 (GE-5)

Track AMC-5 (GE-5) now!
AMC-5 (GE-5) is classified as:


NORAD ID: 25516
Int'l Code: 1998-063B
Perigee: 36,038.9 km
Apogee: 36,081.3 km
Inclination: 5.2 °
Period: 1,449.7 minutes
Semi major axis: 42431 km
RCS: 9.3322 m2 (large)
Launch date: October 28, 1998
Source: SOCIETE EUROPEENNE DES SATELLITES (SES)
Launch site: FRENCH GUIANA (FRGUI)

Broadband internet, business television; 16 Ku-band; CONUS
Your satellite tracking list
Your tracking list is empty





NASA's NSSDC Master Catalog

Two Line Element Set (TLE):
1 25516U 98063B   17049.00580341 -.00000038  00000-0  00000+0 0  9998
2 25516   5.1705  61.2668 0004999 255.5202 280.7223  0.99329038 67011
Source of the keplerian elements: AFSPC